| time (UTC) | temp C | wind direction | speed KPH | gust KPH | rain 1hr cm | rain 24hr cm | rain mn cm | humidity % | barometer mb |
| 20260508172308 | 16 | 300 | 12.9 | 32.2 | 0.00 | 0.00 | 0.00 | 22 | 1019.5 |
| 20260508171759 | 16 | 275 | 12.9 | 32.2 | 0.00 | 0.00 | 0.00 | 22 | 1019.6 |
| 20260508171306 | 16 | 288 | 12.9 | 32.2 | 0.00 | 0.00 | 0.00 | 22 | 1019.8 |
| 20260508170538 | 16 | 283 | 12.9 | 30.6 | 0.00 | 0.00 | 0.00 | 22 | 1019.6 |
| 20260508170038 | 16 | 207 | 12.9 | 30.6 | 0.00 | 0.00 | 0.00 | 22 | 1019.5 |
| 20260508165539 | 16 | 263 | 14.5 | 37.0 | 0.00 | 0.00 | 0.00 | 22 | 1019.6 |
| 20260508165038 | 16 | 281 | 16.1 | 37.0 | 0.00 | 0.00 | 0.00 | 22 | 1019.6 |
| 20260508164538 | 16 | 314 | 12.9 | 35.4 | 0.00 | 0.00 | 0.00 | 23 | 1019.6 |
| 20260508164038 | 16 | 257 | 9.7 | 35.4 | 0.00 | 0.00 | 0.00 | 23 | 1019.5 |
| 20260508163757 | 16 | 265 | 4.8 | 29.0 | 0.00 | 0.00 | 0.00 | 24 | 1019.5 |
| 20260508163039 | 16 | 306 | 6.4 | 25.7 | 0.00 | 0.00 | 0.00 | 26 | 1019.5 |
| 20260508162538 | 15 | 277 | 4.8 | 25.7 | 0.00 | 0.00 | 0.00 | 26 | 1019.5 |
| 20260508162038 | 15 | 217 | 3.2 | 20.9 | 0.00 | 0.00 | 0.00 | 27 | 1019.5 |
| 20260508161538 | 15 | 240 | 4.8 | 20.9 | 0.00 | 0.00 | 0.00 | 27 | 1019.6 |
| 20260508161039 | 14 | 292 | 4.8 | 20.9 | 0.00 | 0.00 | 0.00 | 28 | 1019.6 |
| 20260508160533 | 14 | 271 | 8.0 | 20.9 | 0.00 | 0.00 | 0.00 | 29 | 1019.6 |
| 20260508160034 | 14 | 290 | 9.7 | 24.1 | 0.00 | 0.00 | 0.00 | 29 | 1019.8 |
| 20260508155531 | 14 | 287 | 6.4 | 24.1 | 0.00 | 0.00 | 0.00 | 28 | 1019.8 |
| 20260508155033 | 14 | 290 | 4.8 | 22.5 | 0.00 | 0.00 | 0.00 | 28 | 1019.8 |
| 20260508154535 | 14 | 248 | 4.8 | 25.7 | 0.00 | 0.00 | 0.00 | 28 | 1019.8 |
| 20260508154032 | 14 | 272 | 4.8 | 25.7 | 0.00 | 0.00 | 0.00 | 28 | 1019.8 |
| 20260508153529 | 14 | 290 | 8.0 | 24.1 | 0.00 | 0.00 | 0.00 | 29 | 1019.8 |
| 20260508153030 | 13 | 252 | 8.0 | 24.1 | 0.00 | 0.00 | 0.00 | 30 | 1019.8 |
| 20260508152756 | 13 | 294 | 6.4 | 22.5 | 0.00 | 0.00 | 0.00 | 29 | 1019.9 |
| 20260508152030 | 13 | 269 | 6.4 | 22.5 | 0.00 | 0.00 | 0.00 | 31 | 1019.8 |
| 20260508151531 | 13 | 293 | 8.0 | 20.9 | 0.00 | 0.00 | 0.00 | 32 | 1019.8 |
| 20260508151026 | 12 | 261 | 8.0 | 22.5 | 0.00 | 0.00 | 0.00 | 32 | 1019.8 |
| 20260508150525 | 12 | 248 | 6.4 | 22.5 | 0.00 | 0.00 | 0.00 | 33 | 1019.8 |
| 20260508150027 | 12 | 260 | 3.2 | 24.1 | 0.00 | 0.00 | 0.00 | 34 | 1019.8 |
| 20260508145528 | 12 | 236 | 4.8 | 24.1 | 0.00 | 0.00 | 0.00 | 35 | 1019.8 |
| 20260508145523 | 11 | 243 | 6.4 | 24.1 | 0.00 | 0.00 | 0.00 | 35 | 1019.6 |
| 20260508144526 | 12 | 261 | 6.4 | 22.5 | 0.00 | 0.00 | 0.00 | 35 | 1019.6 |
| 20260508144027 | 12 | 252 | 9.7 | 22.5 | 0.00 | 0.00 | 0.00 | 35 | 1019.6 |
| 20260508143749 | 12 | 217 | 8.0 | 22.5 | 0.00 | 0.00 | 0.00 | 35 | 1019.5 |
| 20260508143022 | 12 | 219 | 6.4 | 22.5 | 0.00 | 0.00 | 0.00 | 34 | 1019.5 |
| 20260508142523 | 12 | 247 | 4.8 | 22.5 | 0.00 | 0.00 | 0.00 | 35 | 1019.5 |
| 20260508142023 | 12 | 237 | 3.2 | 17.7 | 0.00 | 0.00 | 0.00 | 35 | 1019.5 |
| 20260508141522 | 12 | 237 | 3.2 | 17.7 | 0.00 | 0.00 | 0.00 | 34 | 1019.5 |
| 20260508141021 | 12 | 239 | 1.6 | 20.9 | 0.00 | 0.00 | 0.00 | 34 | 1019.5 |
| 20260508140523 | 12 | 244 | 1.6 | 20.9 | 0.00 | 0.00 | 0.00 | 34 | 1019.5 |
| 20260508140023 | 12 | 254 | 0.0 | 11.3 | 0.00 | 0.00 | 0.00 | 34 | 1019.4 |
| 20260508135522 | 12 | 233 | 0.0 | 8.0 | 0.00 | 0.00 | 0.00 | 36 | 1019.4 |
| 20260508135242 | 11 | 267 | 0.0 | 8.0 | 0.00 | 0.00 | 0.00 | 38 | 1019.4 |
| 20260508134522 | 11 | 240 | 0.0 | 1.6 | 0.00 | 0.00 | 0.00 | 38 | 1019.4 |
| 20260508134023 | 10 | 234 | 0.0 | 1.6 | 0.00 | 0.00 | 0.00 | 41 | 1019.3 |
| 20260508133523 | 10 | 220 | 0.0 | 1.6 | 0.00 | 0.00 | 0.00 | 42 | 1019.3 |
| 20260508133255 | 10 | 223 | 0.0 | 1.6 | 0.00 | 0.00 | 0.00 | 42 | 1019.3 |
| 20260508132520 | 9 | 223 | 0.0 | 1.6 | 0.00 | 0.00 | 0.00 | 43 | 1019.1 |
| 20260508132021 | 9 | 208 | 0.0 | 3.2 | 0.00 | 0.00 | 0.00 | 44 | 1019.3 |
| 20260508131521 | 9 | 213 | 1.6 | 12.9 | 0.00 | 0.00 | 0.00 | 43 | 1019.1 |
| 20260508131021 | 9 | 218 | 1.6 | 12.9 | 0.00 | 0.00 | 0.00 | 43 | 1019.0 |
| 20260508130519 | 9 | 210 | 1.6 | 14.5 | 0.00 | 0.00 | 0.00 | 43 | 1019.0 |
| 20260508130017 | 9 | 214 | 0.0 | 14.5 | 0.00 | 0.00 | 0.00 | 44 | 1019.0 |
| 20260508125515 | 9 | 217 | 0.0 | 1.6 | 0.00 | 0.00 | 0.00 | 44 | 1019.0 |
| 20260508125235 | 8 | 215 | 0.0 | 1.6 | 0.00 | 0.00 | 0.00 | 44 | 1018.9 |
| 20260508124510 | 8 | 208 | 1.6 | 12.9 | 0.00 | 0.00 | 0.00 | 45 | 1018.9 |
| 20260508124221 | 8 | 214 | 1.6 | 12.9 | 0.00 | 0.00 | 0.00 | 45 | 1018.8 |
| 20260508123710 | 8 | 204 | 0.0 | 9.7 | 0.00 | 0.00 | 0.00 | 45 | 1018.8 |
| 20260508122945 | 8 | 205 | 0.0 | 9.7 | 0.00 | 0.00 | 0.00 | 45 | 1018.6 |
| 20260508122434 | 8 | 207 | 0.0 | 9.7 | 0.00 | 0.00 | 0.00 | 46 | 1018.6 |
| 20260508121928 | 8 | 222 | 0.0 | 9.7 | 0.00 | 0.00 | 0.00 | 46 | 1018.6 |
| 20260508121423 | 8 | 215 | 0.0 | 9.7 | 0.00 | 0.00 | 0.00 | 46 | 1018.5 |
| 20260508120908 | 8 | 209 | 0.0 | 11.3 | 0.00 | 0.00 | 0.00 | 46 | 1018.5 |
| 20260508120626 | 8 | 217 | 0.0 | 11.3 | 0.00 | 0.00 | 0.00 | 46 | 1018.5 |
| 20260508120120 | 8 | 219 | 0.0 | 8.0 | 0.00 | 0.00 | 0.00 | 46 | 1018.4 |
| 20260508115346 | 8 | 207 | 0.0 | 8.0 | 0.00 | 0.00 | 0.00 | 46 | 1018.4 |
| 20260508115112 | 8 | 206 | 1.6 | 12.9 | 0.00 | 0.00 | 0.00 | 46 | 1018.5 |
| 20260508114346 | 8 | 212 | 1.6 | 12.9 | 0.00 | 0.00 | 0.00 | 45 | 1018.4 |
| 20260508113846 | 8 | 215 | 0.0 | 9.7 | 0.00 | 0.00 | 0.00 | 45 | 1018.4 |
| 20260508113347 | 8 | 215 | 0.0 | 6.4 | 0.00 | 0.00 | 0.00 | 45 | 1018.4 |
| 20260508112847 | 8 | 209 | 0.0 | 11.3 | 0.00 | 0.00 | 0.00 | 45 | 1018.4 |
| 20260508112344 | 8 | 205 | 0.0 | 11.3 | 0.00 | 0.00 | 0.00 | 46 | 1018.4 |
| 20260508111842 | 8 | 207 | 1.6 | 14.5 | 0.00 | 0.00 | 0.00 | 46 | 1018.4 |
| 20260508111341 | 8 | 215 | 1.6 | 14.5 | 0.00 | 0.00 | 0.00 | 46 | 1018.4 |
| 20260508110844 | 8 | 212 | 0.0 | 12.9 | 0.00 | 0.00 | 0.00 | 46 | 1018.4 |
| 20260508110340 | 8 | 208 | 0.0 | 9.7 | 0.00 | 0.00 | 0.00 | 46 | 1018.5 |
| 20260508105838 | 8 | 211 | 0.0 | 3.2 | 0.00 | 0.00 | 0.00 | 46 | 1018.5 |
| 20260508105337 | 8 | 201 | 0.0 | 3.2 | 0.00 | 0.00 | 0.00 | 46 | 1018.5 |
| 20260508105058 | 8 | 203 | 0.0 | 8.0 | 0.00 | 0.00 | 0.00 | 46 | 1018.5 |
| 20260508104334 | 8 | 200 | 0.0 | 8.0 | 0.00 | 0.00 | 0.00 | 46 | 1018.5 |
| 20260508104056 | 8 | 207 | 0.0 | 0.0 | 0.00 | 0.00 | 0.00 | 46 | 1018.5 |
| 20260508103324 | 8 | 217 | 0.0 | 0.0 | 0.00 | 0.00 | 0.00 | 46 | 1018.4 |
| 20260508102818 | 8 | 217 | 0.0 | 0.0 | 0.00 | 0.00 | 0.00 | 46 | 1018.5 |
| 20260508102316 | 8 | 217 | 0.0 | 4.8 | 0.00 | 0.00 | 0.00 | 46 | 1018.5 |
| 20260508101815 | 8 | 221 | 0.0 | 4.8 | 0.00 | 0.00 | 0.00 | 46 | 1018.5 |
| 20260508101318 | 8 | 222 | 0.0 | 4.8 | 0.00 | 0.00 | 0.00 | 45 | 1018.5 |
| 20260508100816 | 8 | 207 | 0.0 | 3.2 | 0.00 | 0.00 | 0.00 | 45 | 1018.5 |
| 20260508100315 | 8 | 207 | 0.0 | 8.0 | 0.00 | 0.00 | 0.00 | 45 | 1018.5 |
| 20260508100037 | 8 | 207 | 0.0 | 8.0 | 0.00 | 0.00 | 0.00 | 44 | 1018.4 |
| 20260508095309 | 8 | 212 | 0.0 | 1.6 | 0.00 | 0.00 | 0.00 | 44 | 1018.4 |
| 20260508094811 | 8 | 213 | 0.0 | 1.6 | 0.00 | 0.00 | 0.00 | 44 | 1018.4 |
| 20260508094310 | 8 | 211 | 0.0 | 8.0 | 0.00 | 0.00 | 0.00 | 44 | 1018.3 |
| 20260508094032 | 8 | 215 | 1.6 | 11.3 | 0.00 | 0.00 | 0.00 | 45 | 1018.3 |
| 20260508093311 | 8 | 209 | 1.6 | 11.3 | 0.00 | 0.00 | 0.00 | 45 | 1018.3 |
| 20260508092811 | 8 | 207 | 0.0 | 0.0 | 0.00 | 0.00 | 0.00 | 45 | 1018.2 |
| 20260508092313 | 8 | 214 | 0.0 | 0.0 | 0.00 | 0.00 | 0.00 | 46 | 1018.2 |
| 20260508091804 | 8 | 215 | 0.0 | 0.0 | 0.00 | 0.00 | 0.00 | 46 | 1018.2 |
| 20260508091304 | 8 | 215 | 0.0 | 0.0 | 0.00 | 0.00 | 0.00 | 45 | 1018.2 |
| 20260508090802 | 8 | 215 | 0.0 | 3.2 | 0.00 | 0.00 | 0.00 | 45 | 1018.3 |
| 20260508090521 | 8 | 215 | 0.0 | 6.4 | 0.00 | 0.00 | 0.00 | 45 | 1018.3 |
| 20260508085759 | 8 | 214 | 0.0 | 6.4 | 0.00 | 0.00 | 0.00 | 45 | 1018.3 |
| 20260508085255 | 8 | 211 | 0.0 | 3.2 | 0.00 | 0.00 | 0.00 | 45 | 1018.2 |
| 20260508084756 | 8 | 212 | 0.0 | 4.8 | 0.00 | 0.00 | 0.00 | 45 | 1018.3 |
| 20260508084256 | 8 | 211 | 0.0 | 4.8 | 0.00 | 0.00 | 0.00 | 45 | 1018.3 |
| 20260508083754 | 8 | 213 | 0.0 | 0.0 | 0.00 | 0.00 | 0.00 | 44 | 1018.4 |
| 20260508083512 | 8 | 212 | 0.0 | 0.0 | 0.00 | 0.00 | 0.00 | 44 | 1018.3 |
| 20260508082752 | 8 | 213 | 0.0 | 0.0 | 0.00 | 0.00 | 0.00 | 44 | 1018.4 |
| 20260508082252 | 8 | 207 | 0.0 | 4.8 | 0.00 | 0.00 | 0.00 | 44 | 1018.4 |
| 20260508081750 | 8 | 212 | 0.0 | 4.8 | 0.00 | 0.00 | 0.00 | 44 | 1018.4 |
| 20260508081247 | 8 | 216 | 0.0 | 0.0 | 0.00 | 0.00 | 0.00 | 45 | 1018.4 |
| 20260508080745 | 8 | 212 | 0.0 | 0.0 | 0.00 | 0.00 | 0.00 | 45 | 1018.5 |
| 20260508080246 | 8 | 215 | 0.0 | 0.0 | 0.00 | 0.00 | 0.00 | 44 | 1018.6 |
| 20260508075739 | 8 | 216 | 0.0 | 0.0 | 0.00 | 0.00 | 0.00 | 44 | 1018.6 |
| 20260508075234 | 8 | 217 | 0.0 | 0.0 | 0.00 | 0.00 | 0.00 | 44 | 1018.6 |
| 20260508074720 | 8 | 217 | 0.0 | 0.0 | 0.00 | 0.00 | 0.00 | 43 | 1018.6 |
| 20260508074442 | 8 | 219 | 0.0 | 0.0 | 0.00 | 0.00 | 0.00 | 43 | 1018.8 |
| 20260508073707 | 8 | 219 | 0.0 | 0.0 | 0.00 | 0.00 | 0.00 | 43 | 1018.8 |
| 20260508073159 | 8 | 219 | 0.0 | 1.6 | 0.00 | 0.00 | 0.00 | 43 | 1018.8 |
| 20260508072652 | 8 | 221 | 0.0 | 1.6 | 0.00 | 0.00 | 0.00 | 43 | 1018.8 |
| 20260508072146 | 9 | 220 | 0.0 | 4.8 | 0.00 | 0.00 | 0.00 | 43 | 1018.8 |
| 20260508071632 | 9 | 220 | 0.0 | 4.8 | 0.00 | 0.00 | 0.00 | 42 | 1018.8 |
| 20260508071127 | 9 | 185 | 0.0 | 0.0 | 0.00 | 0.00 | 0.00 | 42 | 1018.6 |
| 20260508070620 | 9 | 215 | 0.0 | 0.0 | 0.00 | 0.00 | 0.00 | 42 | 1018.6 |
| 20260508070111 | 9 | 209 | 0.0 | 0.0 | 0.00 | 0.00 | 0.00 | 42 | 1018.5 |
| 20260508065611 | 9 | 210 | 0.0 | 0.0 | 0.00 | 0.00 | 0.00 | 41 | 1018.6 |
| 20260508065112 | 9 | 206 | 0.0 | 1.6 | 0.00 | 0.00 | 0.00 | 41 | 1018.5 |
| 20260508064832 | 10 | 207 | 0.0 | 11.3 | 0.00 | 0.00 | 0.00 | 41 | 1018.5 |
| 20260508064112 | 10 | 216 | 1.6 | 11.3 | 0.00 | 0.00 | 0.00 | 41 | 1018.5 |
| 20260508063611 | 10 | 213 | 1.6 | 9.7 | 0.00 | 0.00 | 0.00 | 40 | 1018.4 |
| 20260508063111 | 10 | 206 | 0.0 | 1.6 | 0.00 | 0.00 | 0.00 | 40 | 1018.4 |
| 20260508062611 | 10 | 213 | 0.0 | 0.0 | 0.00 | 0.00 | 0.00 | 40 | 1018.4 |
| 20260508062602 | 10 | 212 | 0.0 | 1.6 | 0.00 | 0.00 | 0.00 | 40 | 1018.4 |
| 20260508061601 | 10 | 211 | 0.0 | 1.6 | 0.00 | 0.00 | 0.00 | 40 | 1018.4 |
| 20260508061058 | 10 | 211 | 0.0 | 0.0 | 0.00 | 0.00 | 0.00 | 40 | 1018.5 |
| 20260508060559 | 10 | 209 | 0.0 | 1.6 | 0.00 | 0.00 | 0.00 | 39 | 1018.4 |
| 20260508060059 | 10 | 221 | 0.0 | 1.6 | 0.00 | 0.00 | 0.00 | 39 | 1018.5 |
| 20260508055558 | 10 | 196 | 0.0 | 1.6 | 0.00 | 0.00 | 0.00 | 39 | 1018.4 |
| 20260508055056 | 10 | 205 | 0.0 | 1.6 | 0.00 | 0.00 | 0.00 | 39 | 1018.4 |
| 20260508054557 | 10 | 202 | 0.0 | 11.3 | 0.00 | 0.00 | 0.00 | 38 | 1018.4 |
| 20260508054312 | 10 | 211 | 1.6 | 11.3 | 0.00 | 0.00 | 0.00 | 38 | 1018.4 |
| 20260508053557 | 10 | 200 | 0.0 | 11.3 | 0.00 | 0.00 | 0.00 | 38 | 1018.4 |
| 20260508053056 | 10 | 203 | 0.0 | 9.7 | 0.00 | 0.00 | 0.00 | 37 | 1018.4 |
| 20260508052557 | 10 | 210 | 0.0 | 9.7 | 0.00 | 0.00 | 0.00 | 37 | 1018.4 |
| 20260508052057 | 11 | 223 | 0.0 | 9.7 | 0.00 | 0.00 | 0.00 | 37 | 1018.4 |
| 20260508051557 | 11 | 215 | 0.0 | 12.9 | 0.00 | 0.00 | 0.00 | 37 | 1018.4 |
| 20260508051055 | 11 | 213 | 1.6 | 12.9 | 0.00 | 0.00 | 0.00 | 37 | 1018.4 |
| 20260508050554 | 10 | 205 | 0.0 | 9.7 | 0.00 | 0.00 | 0.00 | 37 | 1018.5 |
| 20260508050053 | 11 | 219 | 0.0 | 9.7 | 0.00 | 0.00 | 0.00 | 37 | 1018.5 |
| 20260508045555 | 11 | 204 | 0.0 | 9.7 | 0.00 | 0.00 | 0.00 | 36 | 1018.5 |
| 20260508045054 | 11 | 208 | 0.0 | 1.6 | 0.00 | 0.00 | 0.00 | 36 | 1018.5 |
| 20260508044551 | 11 | 208 | 0.0 | 1.6 | 0.00 | 0.00 | 0.00 | 35 | 1018.6 |
| 20260508044052 | 11 | 205 | 0.0 | 6.4 | 0.00 | 0.00 | 0.00 | 35 | 1018.5 |
| 20260508043550 | 11 | 211 | 0.0 | 6.4 | 0.00 | 0.00 | 0.00 | 35 | 1018.6 |
| 20260508043051 | 12 | 219 | 0.0 | 1.6 | 0.00 | 0.00 | 0.00 | 35 | 1018.6 |
| 20260508042547 | 12 | 215 | 0.0 | 1.6 | 0.00 | 0.00 | 0.00 | 35 | 1018.8 |
| 20260508042047 | 12 | 209 | 0.0 | 3.2 | 0.00 | 0.00 | 0.00 | 34 | 1018.8 |
| 20260508041546 | 12 | 219 | 0.0 | 3.2 | 0.00 | 0.00 | 0.00 | 34 | 1018.8 |
| 20260508041046 | 12 | 217 | 0.0 | 1.6 | 0.00 | 0.00 | 0.00 | 34 | 1018.6 |
| 20260508041039 | 12 | 215 | 0.0 | 1.6 | 0.00 | 0.00 | 0.00 | 34 | 1018.6 |
| 20260508040047 | 12 | 215 | 0.0 | 1.6 | 0.00 | 0.00 | 0.00 | 34 | 1018.5 |
| 20260508035545 | 12 | 217 | 0.0 | 1.6 | 0.00 | 0.00 | 0.00 | 34 | 1018.5 |
| 20260508035052 | 12 | 225 | 0.0 | 1.6 | 0.00 | 0.00 | 0.00 | 34 | 1018.4 |
| 20260508034542 | 12 | 249 | 0.0 | 1.6 | 0.00 | 0.00 | 0.00 | 33 | 1018.5 |
| 20260508034306 | 12 | 222 | 0.0 | 1.6 | 0.00 | 0.00 | 0.00 | 33 | 1018.4 |
| 20260508033542 | 12 | 221 | 0.0 | 1.6 | 0.00 | 0.00 | 0.00 | 33 | 1018.4 |
| 20260508033043 | 13 | 219 | 0.0 | 1.6 | 0.00 | 0.00 | 0.00 | 32 | 1018.4 |
| 20260508032539 | 13 | 228 | 0.0 | 11.3 | 0.00 | 0.00 | 0.00 | 32 | 1018.3 |
| 20260508032041 | 13 | 223 | 0.0 | 11.3 | 0.00 | 0.00 | 0.00 | 32 | 1018.0 |
| 20260508031539 | 13 | 225 | 0.0 | 9.7 | 0.00 | 0.00 | 0.00 | 32 | 1018.0 |
| 20260508031529 | 13 | 219 | 0.0 | 1.6 | 0.00 | 0.00 | 0.00 | 32 | 1018.0 |
| 20260508030802 | 13 | 224 | 0.0 | 1.6 | 0.00 | 0.00 | 0.00 | 31 | 1017.9 |
| 20260508030028 | 13 | 218 | 0.0 | 12.9 | 0.00 | 0.00 | 0.00 | 31 | 1017.8 |
| 20260508025518 | 13 | 211 | 1.6 | 12.9 | 0.00 | 0.00 | 0.00 | 31 | 1017.9 |
| 20260508025012 | 13 | 229 | 1.6 | 8.0 | 0.00 | 0.00 | 0.00 | 31 | 1017.7 |
| 20260508024506 | 13 | 223 | 1.6 | 12.9 | 0.00 | 0.00 | 0.00 | 30 | 1017.5 |
| 20260508023952 | 13 | 205 | 1.6 | 14.5 | 0.00 | 0.00 | 0.00 | 30 | 1017.4 |
| 20260508023914 | 14 | 205 | 0.0 | 6.4 | 0.00 | 0.00 | 0.00 | 29 | 1017.4 |
| 20260508023532 | 14 | 233 | 1.6 | 14.5 | 0.00 | 0.00 | 0.00 | 30 | 1017.5 |
| 20260508022431 | 14 | 257 | 1.6 | 17.7 | 0.00 | 0.00 | 0.00 | 28 | 1017.4 |
| 20260508021925 | 15 | 214 | 1.6 | 17.7 | 0.00 | 0.00 | 0.00 | 27 | 1017.4 |
| 20260508021638 | 15 | 267 | 1.6 | 12.9 | 0.00 | 0.00 | 0.00 | 27 | 1017.4 |
| 20260508020902 | 15 | 252 | 1.6 | 17.7 | 0.00 | 0.00 | 0.00 | 26 | 1017.4 |
| 20260508020356 | 15 | 214 | 1.6 | 17.7 | 0.00 | 0.00 | 0.00 | 26 | 1017.4 |
| 20260508015850 | 16 | 259 | 3.2 | 20.9 | 0.00 | 0.00 | 0.00 | 26 | 1017.4 |
| 20260508015340 | 16 | 242 | 3.2 | 20.9 | 0.00 | 0.00 | 0.00 | 25 | 1017.4 |
| 20260508014834 | 16 | 266 | 3.2 | 24.1 | 0.00 | 0.00 | 0.00 | 25 | 1017.5 |
| 20260508014327 | 16 | 286 | 8.0 | 25.7 | 0.00 | 0.00 | 0.00 | 25 | 1017.5 |
| 20260508013818 | 16 | 283 | 9.7 | 25.7 | 0.00 | 0.00 | 0.00 | 25 | 1017.7 |
| 20260508013311 | 16 | 281 | 4.8 | 25.7 | 0.00 | 0.00 | 0.00 | 25 | 1017.5 |
| 20260508012806 | 16 | 277 | 3.2 | 24.1 | 0.00 | 0.00 | 0.00 | 25 | 1017.4 |
| 20260508012522 | 16 | 249 | 6.4 | 24.1 | 0.00 | 0.00 | 0.00 | 25 | 1017.4 |
| 20260508011803 | 16 | 235 | 4.8 | 20.9 | 0.00 | 0.00 | 0.00 | 24 | 1017.4 |
| 20260508011303 | 16 | 209 | 1.6 | 19.3 | 0.00 | 0.00 | 0.00 | 24 | 1017.4 |
| 20260508010805 | 16 | 262 | 1.6 | 16.1 | 0.00 | 0.00 | 0.00 | 24 | 1017.4 |
| 20260508010303 | 16 | 237 | 1.6 | 16.1 | 0.00 | 0.00 | 0.00 | 25 | 1017.5 |
| 20260508005804 | 16 | 350 | 6.4 | 22.5 | 0.00 | 0.00 | 0.00 | 24 | 1017.8 |
| 20260508005305 | 16 | 268 | 11.3 | 27.4 | 0.00 | 0.00 | 0.00 | 24 | 1017.7 |
| 20260508004803 | 16 | 261 | 9.7 | 27.4 | 0.00 | 0.00 | 0.00 | 24 | 1017.7 |
| 20260508004303 | 16 | 281 | 9.7 | 30.6 | 0.00 | 0.00 | 0.00 | 24 | 1017.7 |
| 20260508004029 | 16 | 270 | 12.9 | 43.5 | 0.00 | 0.00 | 0.00 | 23 | 1017.7 |
| 20260508003304 | 16 | 247 | 16.1 | 43.5 | 0.00 | 0.00 | 0.00 | 23 | 1017.8 |
| 20260508002804 | 17 | 243 | 17.7 | 33.8 | 0.00 | 0.00 | 0.00 | 23 | 1017.8 |
| 20260508002250 | 17 | 282 | 16.1 | 38.6 | 0.00 | 0.00 | 0.00 | 22 | 1017.7 |
| 20260508001744 | 17 | 279 | 17.7 | 38.6 | 0.00 | 0.00 | 0.00 | 22 | 1017.8 |
| 20260508001238 | 17 | 254 | 19.3 | 40.2 | 0.00 | 0.00 | 0.00 | 22 | 1017.7 |
| 20260508000729 | 17 | 264 | 19.3 | 46.7 | 0.00 | 0.00 | 0.00 | 23 | 1017.8 |
| 20260508000222 | 17 | 268 | 19.3 | 46.7 | 0.00 | 0.00 | 0.00 | 22 | 1017.7 |
| 20260507235715 | 17 | 227 | 20.9 | 43.5 | 0.00 | 0.00 | 0.00 | 23 | 1017.8 |
| 20260507235203 | 17 | 240 | 19.3 | 43.5 | 0.00 | 0.00 | 0.00 | 25 | 1017.8 |
| 20260507234656 | 17 | 241 | 17.7 | 40.2 | 0.00 | 0.00 | 0.00 | 25 | 1017.8 |
| 20260507234150 | 17 | 242 | 17.7 | 32.2 | 0.00 | 0.00 | 0.00 | 24 | 1017.8 |
| 20260507233641 | 17 | 248 | 14.5 | 43.5 | 0.00 | 0.00 | 0.00 | 25 | 1017.7 |
| 20260507233133 | 17 | 191 | 12.9 | 43.5 | 0.00 | 0.00 | 0.00 | 26 | 1017.9 |
| 20260507232628 | 17 | 238 | 19.3 | 45.1 | 0.00 | 0.00 | 0.00 | 26 | 1017.8 |
| 20260507232114 | 17 | 240 | 17.7 | 45.1 | 0.00 | 0.00 | 0.00 | 24 | 1017.7 |
| 20260507231608 | 18 | 204 | 14.5 | 41.8 | 0.00 | 0.00 | 0.00 | 24 | 1017.7 |
| 20260507231102 | 18 | 234 | 14.5 | 37.0 | 0.00 | 0.00 | 0.00 | 25 | 1017.7 |
| 20260507230552 | 17 | 284 | 16.1 | 37.0 | 0.00 | 0.00 | 0.00 | 26 | 1017.7 |
| 20260507230045 | 17 | 224 | 17.7 | 37.0 | 0.00 | 0.00 | 0.00 | 25 | 1017.5 |
| 20260507225540 | 17 | 259 | 16.1 | 37.0 | 0.00 | 0.00 | 0.00 | 26 | 1017.7 |
| 20260507225026 | 17 | 234 | 12.9 | 33.8 | 0.00 | 0.00 | 0.00 | 26 | 1017.7 |
| 20260507224520 | 17 | 215 | 16.1 | 45.1 | 0.00 | 0.00 | 0.00 | 26 | 1017.9 |
| 20260507224014 | 17 | 236 | 20.9 | 45.1 | 0.00 | 0.00 | 0.00 | 25 | 1017.9 |
| 20260507223504 | 18 | 264 | 20.9 | 45.1 | 0.00 | 0.00 | 0.00 | 25 | 1017.9 |
| 20260507222958 | 17 | 258 | 22.5 | 45.1 | 0.00 | 0.00 | 0.00 | 25 | 1018.0 |
| 20260507222452 | 17 | 245 | 17.7 | 43.5 | 0.00 | 0.00 | 0.00 | 25 | 1017.8 |
| 20260507221938 | 17 | 234 | 12.9 | 43.5 | 0.00 | 0.00 | 0.00 | 25 | 1018.0 |
| 20260507221657 | 17 | 261 | 14.5 | 33.8 | 0.00 | 0.00 | 0.00 | 26 | 1017.8 |
| 20260507220934 | 16 | 246 | 19.3 | 40.2 | 0.00 | 0.00 | 0.00 | 26 | 1018.0 |
| 20260507220435 | 16 | 213 | 19.3 | 40.2 | 0.00 | 0.03 | 0.00 | 26 | 1018.0 |
| 20260507215934 | 17 | 221 | 17.7 | 35.4 | 0.00 | 0.03 | 0.00 | 25 | 1018.0 |
| 20260507215435 | 17 | 239 | 14.5 | 33.8 | 0.00 | 0.03 | 0.00 | 25 | 1017.9 |
| 20260507214934 | 17 | 253 | 9.7 | 33.8 | 0.00 | 0.03 | 0.00 | 25 | 1018.0 |
| 20260507214435 | 17 | 279 | 4.8 | 30.6 | 0.00 | 0.03 | 0.00 | 26 | 1018.3 |
| 20260507213934 | 17 | 269 | 6.4 | 33.8 | 0.00 | 0.03 | 0.00 | 26 | 1018.4 |
| 20260507213927 | 16 | 244 | 8.0 | 33.8 | 0.00 | 0.03 | 0.00 | 26 | 1018.5 |
| 20260507213154 | 17 | 269 | 11.3 | 41.8 | 0.00 | 0.03 | 0.00 | 26 | 1018.6 |
| 20260507212435 | 17 | 240 | 17.7 | 41.8 | 0.00 | 0.03 | 0.00 | 25 | 1018.6 |
| 20260507211934 | 17 | 220 | 14.5 | 38.6 | 0.00 | 0.03 | 0.00 | 25 | 1018.5 |
| 20260507211436 | 18 | 252 | 12.9 | 30.6 | 0.00 | 0.03 | 0.00 | 25 | 1018.6 |
| 20260507210937 | 17 | 222 | 14.5 | 29.0 | 0.00 | 0.03 | 0.00 | 26 | 1018.6 |
| 20260507210657 | 17 | 248 | 12.9 | 29.0 | 0.00 | 0.03 | 0.00 | 26 | 1018.8 |
| 20260507205935 | 17 | 244 | 9.7 | 32.2 | 0.00 | 0.03 | 0.00 | 26 | 1018.8 |
| 20260507205434 | 17 | 249 | 9.7 | 32.2 | 0.00 | 0.03 | 0.00 | 25 | 1019.0 |
| 20260507204935 | 17 | 306 | 8.0 | 27.4 | 0.00 | 0.03 | 0.00 | 25 | 1018.8 |
| 20260507204658 | 17 | 250 | 14.5 | 37.0 | 0.00 | 0.03 | 0.00 | 26 | 1018.9 |
| 20260507203936 | 17 | 250 | 17.7 | 37.0 | 0.00 | 0.03 | 0.00 | 25 | 1018.9 |
| 20260507203714 | 17 | 251 | 12.9 | 37.0 | 0.00 | 0.03 | 0.00 | 26 | 1018.9 |
| 20260507202935 | 17 | 235 | 8.0 | 32.2 | 0.00 | 0.03 | 0.00 | 25 | 1018.9 |
| 20260507202436 | 17 | 5 | 9.7 | 35.4 | 0.00 | 0.03 | 0.00 | 25 | 1019.0 |
| 20260507202158 | 17 | 244 | 12.9 | 35.4 | 0.00 | 0.03 | 0.00 | 27 | 1018.9 |
| 20260507201434 | 17 | 219 | 14.5 | 33.8 | 0.00 | 0.03 | 0.00 | 26 | 1019.0 |
| 20260507200936 | 16 | 235 | 16.1 | 37.0 | 0.00 | 0.03 | 0.00 | 27 | 1019.0 |
| 20260507200436 | 16 | 225 | 14.5 | 37.0 | 0.00 | 0.03 | 0.00 | 26 | 1019.1 |
| 20260507200157 | 17 | 227 | 14.5 | 45.1 | 0.00 | 0.03 | 0.00 | 26 | 1019.1 |
| 20260507195919 | 17 | 281 | 14.5 | 45.1 | 0.00 | 0.03 | 0.00 | 25 | 1019.1 |
| 20260507194934 | 17 | 272 | 9.7 | 29.0 | 0.00 | 0.03 | 0.00 | 25 | 1019.1 |
| 20260507194436 | 17 | 226 | 11.3 | 37.0 | 0.00 | 0.03 | 0.00 | 26 | 1019.3 |
| 20260507193936 | 17 | 228 | 17.7 | 37.0 | 0.00 | 0.03 | 0.00 | 25 | 1019.4 |
| 20260507193436 | 17 | 242 | 16.1 | 41.8 | 0.00 | 0.03 | 0.00 | 26 | 1019.3 |
| 20260507192935 | 17 | 229 | 12.9 | 41.8 | 0.00 | 0.03 | 0.00 | 27 | 1019.3 |
| 20260507192435 | 16 | 217 | 14.5 | 38.6 | 0.00 | 0.03 | 0.00 | 27 | 1019.4 |
| 20260507191935 | 16 | 236 | 16.1 | 38.6 | 0.00 | 0.03 | 0.00 | 27 | 1019.5 |
| 20260507191433 | 17 | 290 | 16.1 | 37.0 | 0.00 | 0.03 | 0.00 | 26 | 1019.5 |
| 20260507191154 | 16 | 264 | 14.5 | 37.0 | 0.00 | 0.03 | 0.00 | 26 | 1019.5 |
| 20260507190434 | 16 | 244 | 14.5 | 33.8 | 0.00 | 0.03 | 0.00 | 27 | 1019.5 |
| 20260507185924 | 16 | 248 | 11.3 | 33.8 | 0.00 | 0.03 | 0.00 | 27 | 1019.6 |
| 20260507185417 | 16 | 275 | 11.3 | 33.8 | 0.00 | 0.03 | 0.00 | 26 | 1019.8 |
| 20260507185133 | 16 | 261 | 11.3 | 33.8 | 0.00 | 0.03 | 0.00 | 28 | 1019.9 |
| 20260507184357 | 16 | 268 | 11.3 | 40.2 | 0.00 | 0.03 | 0.00 | 27 | 1019.9 |
| 20260507183853 | 15 | 281 | 17.7 | 41.8 | 0.00 | 0.03 | 0.00 | 28 | 1019.9 |
| 20260507183608 | 15 | 246 | 14.5 | 41.8 | 0.00 | 0.03 | 0.00 | 27 | 1020.0 |
| 20260507182835 | 16 | 247 | 11.3 | 37.0 | 0.00 | 0.03 | 0.00 | 27 | 1020.0 |
| 20260507182330 | 16 | 278 | 14.5 | 33.8 | 0.00 | 0.03 | 0.00 | 27 | 1020.1 |
| 20260507181823 | 15 | 273 | 16.1 | 37.0 | 0.00 | 0.03 | 0.00 | 28 | 1020.1 |
| 20260507181309 | 15 | 265 | 14.5 | 37.0 | 0.00 | 0.03 | 0.00 | 29 | 1020.1 |
| 20260507180803 | 15 | 266 | 9.7 | 37.0 | 0.00 | 0.03 | 0.00 | 27 | 1020.2 |
| 20260507180256 | 15 | 250 | 9.7 | 32.2 | 0.00 | 0.03 | 0.00 | 29 | 1020.2 |
| 20260507175747 | 14 | 236 | 11.3 | 32.2 | 0.00 | 0.03 | 0.00 | 28 | 1020.4 |
| 20260507175502 | 14 | 258 | 9.7 | 30.6 | 0.00 | 0.03 | 0.00 | 29 | 1020.4 |
| 20260507175001 | 14 | 219 | 14.5 | 40.2 | 0.00 | 0.03 | 0.00 | 28 | 1020.5 |
| 20260507174222 | 15 | 289 | 14.5 | 40.2 | 0.00 | 0.03 | 0.00 | 28 | 1020.5 |
| 20260507173715 | 15 | 219 | 12.9 | 35.4 | 0.00 | 0.03 | 0.00 | 29 | 1020.5 |
| 20260507173209 | 15 | 275 | 11.3 | 35.4 | 0.00 | 0.03 | 0.00 | 29 | 1020.5 |
| 20260507172659 | 15 | 298 | 9.7 | 30.6 | 0.00 | 0.03 | 0.00 | 29 | 1020.5 |